Time,TemperatureF,DewpointF,PressureIn,WindDirection,WindDirectionDegrees,WindSpeedMPH,WindSpeedGustMPH,Humidity,HourlyPrecipIn,Conditions,Clouds,dailyrainin,SolarRadiationWatts/m^2,SoftwareType,DateUTC
2013-06-11 00:22:00,46.0,41.0,-100.00,WNW,293,0.0,4.0,82,0.00,,,0.04,2.000000,,2013-06-11 08:22:00,
2013-06-11 00:32:00,46.0,41.0,-100.00,WNW,293,0.0,4.0,82,0.00,,,0.04,2.000000,,2013-06-11 08:32:00,
2013-06-11 00:42:00,46.0,41.0,-100.00,WNW,293,0.0,4.0,82,0.00,,,0.04,2.000000,,2013-06-11 08:42:00,
2013-06-11 00:52:00,46.0,41.0,-100.00,WNW,293,0.0,4.0,82,0.00,,,0.04,2.000000,,2013-06-11 08:52:00,
2013-06-11 01:22:00,45.0,39.0,-100.00,SE,138,2.0,6.0,80,0.00,,,0.04,0.000000,,2013-06-11 09:22:00,
2013-06-11 01:33:00,45.0,39.0,-100.00,SE,138,2.0,6.0,80,0.00,,,0.04,0.000000,,2013-06-11 09:33:00,
2013-06-11 01:43:00,45.0,39.0,-100.00,SE,138,2.0,6.0,80,0.00,,,0.04,0.000000,,2013-06-11 09:43:00,
2013-06-11 01:53:00,45.0,39.0,-100.00,SE,138,2.0,6.0,80,0.00,,,0.04,0.000000,,2013-06-11 09:53:00,
2013-06-11 02:22:00,42.0,38.0,-100.00,SE,137,0.0,5.0,85,0.00,,,0.04,0.000000,,2013-06-11 10:22:00,
2013-06-11 02:33:00,42.0,38.0,-100.00,SE,137,0.0,5.0,85,0.00,,,0.04,0.000000,,2013-06-11 10:33:00,
2013-06-11 02:42:00,42.0,38.0,-100.00,SE,137,0.0,5.0,85,0.00,,,0.04,0.000000,,2013-06-11 10:42:00,
2013-06-11 02:52:00,42.0,38.0,-100.00,SE,137,0.0,5.0,85,0.00,,,0.04,0.000000,,2013-06-11 10:52:00,
2013-06-11 03:22:00,41.0,37.0,-100.00,SSW,208,0.0,5.0,87,0.00,,,-99.99,0.000000,,2013-06-11 11:22:00,
2013-06-11 03:32:00,41.0,37.0,-100.00,SSW,208,0.0,5.0,87,0.00,,,-99.99,0.000000,,2013-06-11 11:32:00,
2013-06-11 03:41:00,41.0,37.0,-100.00,SSW,208,0.0,5.0,87,0.00,,,-99.99,0.000000,,2013-06-11 11:41:00,
2013-06-11 03:52:00,41.0,37.0,-100.00,SSW,208,0.0,5.0,87,0.00,,,-99.99,0.000000,,2013-06-11 11:52:00,
2013-06-11 04:22:00,38.0,35.0,-100.00,ENE,77,1.0,4.0,89,0.00,,,-99.99,1.000000,,2013-06-11 12:22:00,
2013-06-11 04:32:00,38.0,35.0,-100.00,ENE,77,1.0,4.0,89,0.00,,,-99.99,1.000000,,2013-06-11 12:32:00,
2013-06-11 04:42:00,38.0,35.0,-100.00,ENE,77,1.0,4.0,89,0.00,,,-99.99,1.000000,,2013-06-11 12:42:00,
2013-06-11 04:52:00,38.0,35.0,-100.00,ENE,77,1.0,4.0,89,0.00,,,-99.99,1.000000,,2013-06-11 12:52:00,
2013-06-11 05:22:00,36.0,34.0,-100.00,SW,221,0.0,1.0,91,0.00,,,-99.99,11.000000,,2013-06-11 13:22:00,
2013-06-11 05:32:00,36.0,34.0,-100.00,SW,221,0.0,1.0,91,0.00,,,-99.99,11.000000,,2013-06-11 13:32:00,
2013-06-11 05:42:00,36.0,34.0,-100.00,SW,221,0.0,1.0,91,0.00,,,-99.99,11.000000,,2013-06-11 13:42:00,
2013-06-11 05:52:00,36.0,34.0,-100.00,SW,221,0.0,1.0,91,0.00,,,-99.99,11.000000,,2013-06-11 13:52:00,
2013-06-11 06:22:00,42.0,38.0,-100.00,SSW,209,0.0,3.0,87,0.00,,,0.04,34.000000,,2013-06-11 14:22:00,
2013-06-11 06:32:00,42.0,38.0,-100.00,SSW,209,0.0,3.0,87,0.00,,,0.04,34.000000,,2013-06-11 14:32:00,
2013-06-11 06:42:00,42.0,38.0,-100.00,SSW,209,0.0,3.0,87,0.00,,,0.04,34.000000,,2013-06-11 14:42:00,
2013-06-11 06:52:00,42.0,38.0,-100.00,SSW,209,0.0,3.0,87,0.00,,,0.04,34.000000,,2013-06-11 14:52:00,
2013-06-11 07:22:00,47.0,41.0,-100.00,NE,36,0.0,4.0,80,0.00,,,-99.99,65.000000,,2013-06-11 15:22:00,
2013-06-11 07:33:00,47.0,41.0,-100.00,NE,36,0.0,4.0,80,0.00,,,-99.99,65.000000,,2013-06-11 15:33:00,
2013-06-11 07:42:00,47.0,41.0,-100.00,NE,36,0.0,4.0,80,0.00,,,-99.99,65.000000,,2013-06-11 15:42:00,
2013-06-11 07:53:00,47.0,41.0,-100.00,NE,36,0.0,4.0,80,0.00,,,-99.99,65.000000,,2013-06-11 15:53:00,
2013-06-11 08:22:00,52.0,41.0,-100.00,ENE,60,0.0,0.0,66,0.00,,,0.04,152.000000,,2013-06-11 16:22:00,
2013-06-11 08:32:00,52.0,41.0,-100.00,ENE,60,0.0,0.0,66,0.00,,,0.04,152.000000,,2013-06-11 16:32:00,
2013-06-11 08:42:00,52.0,41.0,-100.00,ENE,60,0.0,0.0,66,0.00,,,0.04,152.000000,,2013-06-11 16:42:00,
2013-06-11 08:52:00,52.0,41.0,-100.00,ENE,60,0.0,0.0,66,0.00,,,0.04,152.000000,,2013-06-11 16:52:00,
2013-06-11 09:22:00,59.0,43.0,-100.00,ENE,77,1.0,4.0,56,0.00,,,0.04,315.000000,,2013-06-11 17:22:00,
2013-06-11 09:32:00,59.0,43.0,-100.00,ENE,77,1.0,4.0,56,0.00,,,0.04,315.000000,,2013-06-11 17:32:00,
2013-06-11 09:43:00,59.0,43.0,-100.00,ENE,77,1.0,4.0,56,0.00,,,0.04,315.000000,,2013-06-11 17:43:00,
2013-06-11 09:52:00,59.0,43.0,-100.00,ENE,77,1.0,4.0,56,0.00,,,0.04,315.000000,,2013-06-11 17:52:00,
2013-06-11 10:22:00,62.0,42.0,-100.00,ENE,70,2.0,4.0,47,0.00,,,0.04,453.000000,,2013-06-11 18:22:00,
2013-06-11 10:32:00,62.0,42.0,-100.00,ENE,70,2.0,4.0,47,0.00,,,0.04,453.000000,,2013-06-11 18:32:00,
2013-06-11 10:42:00,62.0,42.0,-100.00,ENE,70,2.0,4.0,47,0.00,,,0.04,453.000000,,2013-06-11 18:42:00,
2013-06-11 10:52:00,62.0,42.0,-100.00,ENE,70,2.0,4.0,47,0.00,,,0.04,453.000000,,2013-06-11 18:52:00,
2013-06-11 11:22:00,62.0,41.0,-100.00,West,266,2.0,6.0,46,0.00,,,0.04,434.000000,,2013-06-11 19:22:00,
2013-06-11 11:32:00,62.0,41.0,-100.00,West,266,2.0,6.0,46,0.00,,,0.04,434.000000,,2013-06-11 19:32:00,
2013-06-11 11:42:00,62.0,41.0,-100.00,West,266,2.0,6.0,46,0.00,,,0.04,434.000000,,2013-06-11 19:42:00,
2013-06-11 11:52:00,62.0,41.0,-100.00,West,266,2.0,6.0,46,0.00,,,0.04,434.000000,,2013-06-11 19:52:00,
2013-06-11 12:22:00,64.0,43.0,-100.00,NW,319,2.0,7.0,46,0.00,,,0.04,414.000000,,2013-06-11 20:22:00,
2013-06-11 12:32:00,64.0,43.0,-100.00,NW,319,2.0,7.0,46,0.00,,,0.04,414.000000,,2013-06-11 20:32:00,
2013-06-11 12:42:00,64.0,43.0,-100.00,NW,319,2.0,7.0,46,0.00,,,0.04,414.000000,,2013-06-11 20:42:00,
2013-06-11 12:52:00,64.0,43.0,-100.00,NW,319,2.0,7.0,46,0.00,,,0.04,414.000000,,2013-06-11 20:52:00,
2013-06-11 13:22:00,66.0,40.0,-100.00,South,178,2.0,6.0,39,0.00,,,0.04,516.000000,,2013-06-11 21:22:00,
2013-06-11 13:33:00,66.0,40.0,-100.00,South,178,2.0,6.0,39,0.00,,,0.04,516.000000,,2013-06-11 21:33:00,
2013-06-11 13:42:00,66.0,40.0,-100.00,South,178,2.0,6.0,39,0.00,,,0.04,516.000000,,2013-06-11 21:42:00,
2013-06-11 13:52:00,66.0,40.0,-100.00,South,178,2.0,6.0,39,0.00,,,0.04,516.000000,,2013-06-11 21:52:00,
2013-06-11 14:22:00,65.0,40.0,-100.00,East,92,4.0,9.0,40,0.00,,,0.04,469.000000,,2013-06-11 22:22:00,
2013-06-11 14:32:00,65.0,40.0,-100.00,East,92,4.0,9.0,40,0.00,,,0.04,469.000000,,2013-06-11 22:32:00,
2013-06-11 14:42:00,65.0,40.0,-100.00,East,92,4.0,9.0,40,0.00,,,0.04,469.000000,,2013-06-11 22:42:00,
2013-06-11 14:52:00,65.0,40.0,-100.00,East,92,4.0,9.0,40,0.00,,,0.04,469.000000,,2013-06-11 22:52:00,
2013-06-11 15:22:00,63.0,38.0,-100.00,ENE,73,6.0,11.0,39,0.00,,,0.04,348.000000,,2013-06-11 23:22:00,
2013-06-11 15:32:00,63.0,38.0,-100.00,ENE,73,6.0,11.0,39,0.00,,,0.04,348.000000,,2013-06-11 23:32:00,
2013-06-11 15:42:00,63.0,38.0,-100.00,ENE,73,6.0,11.0,39,0.00,,,0.04,348.000000,,2013-06-11 23:42:00,
2013-06-11 15:52:00,63.0,38.0,-100.00,ENE,73,6.0,11.0,39,0.00,,,0.04,348.000000,,2013-06-11 23:52:00,
2013-06-11 16:22:00,63.0,38.0,-100.00,East,87,4.0,11.0,39,0.00,,,0.04,430.000000,,2013-06-12 00:22:00,
2013-06-11 16:32:00,63.0,38.0,-100.00,East,87,4.0,11.0,39,0.00,,,0.04,430.000000,,2013-06-12 00:32:00,
2013-06-11 16:42:00,63.0,38.0,-100.00,East,87,4.0,11.0,39,0.00,,,0.04,430.000000,,2013-06-12 00:42:00,
2013-06-11 16:52:00,63.0,38.0,-100.00,East,87,4.0,11.0,39,0.00,,,0.04,430.000000,,2013-06-12 00:52:00,
2013-06-11 17:22:00,58.0,38.0,-100.00,East,81,4.0,11.0,47,0.00,,,0.01,217.000000,,2013-06-12 01:22:00,
2013-06-11 17:32:00,58.0,38.0,-100.00,East,81,4.0,11.0,47,0.00,,,0.01,217.000000,,2013-06-12 01:32:00,
2013-06-11 17:42:00,58.0,38.0,-100.00,East,81,4.0,11.0,47,0.00,,,0.01,217.000000,,2013-06-12 01:42:00,
2013-06-11 17:52:00,58.0,38.0,-100.00,East,81,4.0,11.0,47,0.00,,,0.01,217.000000,,2013-06-12 01:52:00,
2013-06-11 18:22:00,51.0,44.0,-100.00,SE,124,3.0,7.0,77,0.02,,,-99.99,53.000000,,2013-06-12 02:22:00,
2013-06-11 18:32:00,51.0,44.0,-100.00,SE,124,3.0,7.0,77,0.02,,,-99.99,53.000000,,2013-06-12 02:32:00,
2013-06-11 18:42:00,51.0,44.0,-100.00,SE,124,3.0,7.0,77,0.02,,,-99.99,53.000000,,2013-06-12 02:42:00,
2013-06-11 18:52:00,51.0,44.0,-100.00,SE,124,3.0,7.0,77,0.02,,,-99.99,53.000000,,2013-06-12 02:52:00,
2013-06-11 20:23:00,50.0,44.0,-100.00,ESE,121,2.0,11.0,79,-99.99,,,0.06,112.000000,,2013-06-12 04:23:00,
2013-06-11 20:33:00,50.0,44.0,-100.00,ESE,121,2.0,11.0,79,-99.99,,,0.06,112.000000,,2013-06-12 04:33:00,
2013-06-11 20:42:00,50.0,44.0,-100.00,ESE,121,2.0,11.0,79,-99.99,,,0.06,112.000000,,2013-06-12 04:42:00,
2013-06-11 20:52:00,50.0,44.0,-100.00,ESE,121,2.0,11.0,79,-99.99,,,0.06,112.000000,,2013-06-12 04:52:00,
2013-06-11 21:22:00,53.0,39.0,-100.00,NE,56,7.0,18.0,58,0.01,,,0.07,144.000000,,2013-06-12 05:22:00,
2013-06-11 21:32:00,53.0,39.0,-100.00,NE,56,7.0,18.0,58,0.01,,,0.07,144.000000,,2013-06-12 05:32:00,
2013-06-11 21:42:00,53.0,39.0,-100.00,NE,56,7.0,18.0,58,0.01,,,0.07,144.000000,,2013-06-12 05:42:00,
2013-06-11 21:52:00,53.0,39.0,-100.00,NE,56,7.0,18.0,58,0.01,,,0.07,144.000000,,2013-06-12 05:52:00,
2013-06-11 22:22:00,53.0,38.0,-100.00,NE,39,9.0,21.0,57,0.00,,,0.07,102.000000,,2013-06-12 06:22:00,
2013-06-11 22:32:00,53.0,38.0,-100.00,NE,39,9.0,21.0,57,0.00,,,0.07,102.000000,,2013-06-12 06:32:00,
2013-06-11 22:42:00,53.0,38.0,-100.00,NE,39,9.0,21.0,57,0.00,,,0.07,102.000000,,2013-06-12 06:42:00,
2013-06-11 22:52:00,53.0,38.0,-100.00,NE,39,9.0,21.0,57,0.00,,,0.07,102.000000,,2013-06-12 06:52:00,
2013-06-11 23:22:00,52.0,36.0,-100.00,NE,47,9.0,19.0,55,0.00,,,0.07,39.000000,,2013-06-12 07:22:00,
2013-06-11 23:33:00,52.0,36.0,-100.00,NE,47,9.0,19.0,55,0.00,,,0.07,39.000000,,2013-06-12 07:33:00,
2013-06-11 23:43:00,52.0,36.0,-100.00,NE,47,9.0,19.0,55,0.00,,,0.07,39.000000,,2013-06-12 07:43:00,
2013-06-11 23:53:00,52.0,36.0,-100.00,NE,47,9.0,19.0,55,0.00,,,0.07,39.000000,,2013-06-12 07:53:00,